Flag for Estonia Weather past 2 weeks in Tallinn, Estonia

Now
63 °F

Sunny.


Feels Like: 63 °F
Forecast: 45 / 60 °F
Wind: 10 mph from Northeast

Location: Tallinn


UV Index: 0 (Low)

Visibility: 10 mi


Pressure: 30.12 "Hg

Humidity: 30%

Dew point: 30 °F

Location of TallinnLocation

Historic Weather in Tallinn

°F

Tallinn temperature yesterday

Maximum temperature yesterday: 63 °F (at 3:20 PM)
Minimum temperature yesterday: 34 °F (at 5:50 AM)
Average temperature yesterday: 50 °F

Past Weeks' High & Low Weather Summary

 TemperatureHumidityPressure
High63 °F (Apr 20, 3:20 PM)100% (Apr 6, 12:20 PM)30.33 "Hg (Apr 6, 12:20 PM)
Low23 °F (Apr 10, 6:20 AM)25% (Apr 16, 3:20 PM)29.36 "Hg (Apr 14, 5:50 AM)
Average42 °F68%29.95 "Hg
* Reported Apr 6 12:20 PM — Apr 21 12:50 PM, Tallinn, Weather by CustomWeather, © 2014

Note: Actual official high and low records may vary slightly from our data, if they occured in-between our weather recording intervals... More about our weather records

Advertising

Historic Weather Conditions — Data for Previous 24 hours

 ConditionsComfort  
Time TempWeatherWind HumidityBarometerVisibility
12:50 PM
Apr 21
63 °FPassing clouds.9 mph32%30.12 "HgN/A
12:20 PM63 °FPassing clouds.7 mph32%30.15 "HgN/A
11:50 AM61 °FPassing clouds.8 mph36%30.15 "HgN/A
11:20 AM59 °FPassing clouds.5 mph42%30.15 "HgN/A
10:50 AM59 °FPassing clouds.5 mph45%30.15 "HgN/A
10:20 AM55 °FPassing clouds.3 mph51%30.18 "HgN/A
9:50 AM54 °FSunny.3 mph54%30.18 "Hg10 mi
9:20 AM52 °FSunny.5 mph54%30.18 "Hg10 mi
8:50 AM48 °FSunny.5 mph62%30.18 "Hg10 mi
8:20 AM46 °FSunny.5 mph66%30.18 "Hg10 mi
7:50 AM45 °FSunny.6 mph71%30.18 "Hg10 mi
7:20 AM41 °FSunny.5 mph76%30.18 "Hg10 mi
6:50 AM39 °FSunny.5 mph75%30.18 "Hg10 mi
6:20 AM37 °FClear.6 mph75%30.18 "Hg10 mi
5:50 AM37 °FClear.5 mph75%30.18 "Hg10 mi
5:20 AM37 °FClear.6 mph75%30.18 "Hg10 mi
4:50 AM39 °FClear.6 mph70%30.18 "Hg10 mi
4:20 AM39 °FClear.6 mph70%30.18 "Hg10 mi
3:50 AM39 °FClear.7 mph70%30.18 "Hg10 mi
3:20 AM41 °FClear.7 mph66%30.21 "Hg10 mi
2:50 AM41 °FClear.7 mph66%30.21 "Hg10 mi
2:20 AM39 °FClear.5 mph70%30.21 "Hg10 mi
1:50 AM41 °FClear.6 mph66%30.21 "Hg10 mi
1:20 AM41 °FClear.7 mph66%30.21 "Hg10 mi
12:50 AM43 °FClear.7 mph66%30.21 "Hg10 mi
11:50 PM
Apr 20
46 °FClear.7 mph57%30.21 "Hg10 mi
11:20 PM46 °FClear.6 mph57%30.21 "Hg10 mi
10:50 PM46 °FClear.6 mph57%30.21 "Hg10 mi
10:20 PM48 °FClear.5 mph50%30.21 "Hg10 mi
9:50 PM50 °FClear.6 mph47%30.21 "Hg10 mi
9:20 PM52 °FSunny.7 mph44%30.21 "Hg10 mi
8:50 PM54 °FSunny.7 mph41%30.21 "Hg10 mi
8:20 PM55 °FSunny.7 mph38%30.21 "Hg10 mi
7:50 PM57 °FSunny.9 mph33%30.21 "Hg10 mi
7:20 PM57 °FSunny.8 mph33%30.21 "Hg10 mi
6:50 PM59 °FSunny.9 mph31%30.21 "Hg10 mi
6:20 PM59 °FSunny.10 mph31%30.21 "Hg10 mi
5:50 PM59 °FSunny.12 mph34%30.24 "Hg10 mi
5:20 PM59 °FSunny.12 mph34%30.24 "Hg10 mi
4:50 PM59 °FSunny.12 mph34%30.24 "Hg10 mi
4:20 PM59 °FSunny.12 mph34%30.24 "Hg10 mi
3:50 PM61 °FPassing clouds.12 mph34%30.24 "HgN/A
3:20 PM63 °FSunny.6 mph32%30.24 "Hg10 mi
2:50 PM61 °FSunny.7 mph34%30.24 "Hg10 mi
2:20 PM61 °FSunny.8 mph34%30.27 "Hg10 mi
1:50 PM61 °FSunny.6 mph34%30.27 "Hg10 mi
1:20 PM61 °FSunny.6 mph39%30.27 "Hg10 mi
Weather by CustomWeather, © 2014

See weather overview